Flag for USA

Past Weather in Washington County State Conservation Area, Illinois, USA — Yesterday and Last 2 Weeks

Now
65 °F

Sunny.


Feels Like: 65 °F
Forecast: 71 / 40 °F
Wind: 8 mph from Southwest

Location: Southern Illinois Airport

Current Time: Oct 19, 2019 at 12:13:27 pm

Latest Report: Oct 19, 2019 at 10:52 am


Visibility: 10 mi

Pressure: 29.86 "Hg

Humidity: 49%

Dew Point: 45 °F

Location of Washington County State Conservation AreaLocation

Past Weather in Washington County State Conservation Area — Graph

°F

Washington County State Conservation Area Temperature Yesterday

Maximum temperature yesterday: 69 °F (at 2:52 pm)
Minimum temperature yesterday: 33 °F (at 7:13 am)
Average temperature yesterday: 45 °F

High & Low Weather Summary for the Past Weeks

 TemperatureHumidityPressure
High84 °F (Oct 5, 1:52 pm)100% (Oct 17, 3:19 am)30.29 "Hg (Oct 17, 3:19 am)
Low33 °F (Oct 12, 6:52 am)22% (Oct 7, 3:52 pm)29.83 "Hg (Oct 15, 7:52 pm)
Average55 °F76%30.06 "Hg
* Reported Oct 4 10:52 am — Oct 19 10:52 am, Washington County State Conservation Area. Weather by CustomWeather, © 2019

Note: Actual official high and low records may vary slightly from our data, if they occured in-between our weather recording intervals... More about our weather records

Advertising

Washington County State Conservation Area Weather History for the Previous 24 Hours

Scroll right to see more
 ConditionsComfort  
Time TempWeatherWind HumidityBarometerVisibility
10:52 am
Sat, Oct 19
65 °FSunny.8 mph49%29.86 "Hg10 mi
9:52 am60 °FSunny.6 mph60%29.88 "Hg10 mi
8:52 am51 °FSunny.3 mph80%29.88 "Hg10 mi
7:52 am40 °FSunny.3 mph97%29.88 "Hg9 mi
6:52 am39 °FClear.No wind96%29.87 "Hg9 mi
5:52 am38 °FClear.3 mph97%29.85 "Hg7 mi
5:43 am39 °FFog.No wind93%29.86 "Hg3 mi
5:24 am37 °FFog.No wind96%29.87 "Hg2 mi
4:52 am38 °FClear.No wind93%29.86 "Hg8 mi
4:38 am39 °FFog.No wind93%29.87 "Hg3 mi
4:35 am38 °FFog.No wind97%29.87 "Hg1 mi
4:01 am37 °FFog.3 mph96%29.87 "Hg2 mi
3:21 am40 °FFog.No wind93%29.88 "Hg4 mi
2:52 am40 °FClear.No wind93%29.88 "HgN/A
2:26 am39 °FClear.No wind93%29.88 "HgN/A
2:14 am40 °FFog.No wind93%29.88 "Hg1 mi
2:04 am40 °FFog.No wind100%29.88 "Hg1 mi
1:52 am41 °FFog.No wind96%29.87 "Hg1 mi
12:52 am42 °FClear.3 mph92%29.87 "Hg9 mi
11:52 pm
Fri, Oct 18
46 °FClear.No wind86%29.87 "Hg10 mi
10:52 pm43 °FClear.No wind93%29.88 "Hg10 mi
9:52 pm45 °FClear.No wind82%29.90 "Hg10 mi
8:52 pm48 °FClear.3 mph77%29.90 "Hg10 mi
7:52 pm49 °FClear.No wind77%29.91 "Hg10 mi
6:52 pm57 °FClear.3 mph51%29.91 "Hg10 mi
5:52 pm63 °FSunny.6 mph41%29.91 "Hg10 mi
4:52 pm68 °FSunny.7 mph32%29.92 "Hg10 mi
3:52 pm69 °FSunny.7 mph31%29.94 "Hg10 mi
2:52 pm69 °FSunny.7 mph31%29.96 "Hg10 mi
1:52 pm67 °FSunny.10 mph36%29.98 "Hg10 mi
12:52 pm66 °FSunny.8 mph39%30.02 "Hg10 mi
Weather by CustomWeather, © 2019

See weather overview